Regional Weather Roundup
Issued by NWS Charleston, WV

Home | Current Version | Previous Version | Graphics & Text | Print | Product List | Glossary On
Versions: 1 2 3 4 5 6 7 8 9 10 11 12 13 14 15 16 17 18 19 20 21 22 23 24 25 26 27 28
000
ASUS41 KRLX 170910
RWRRLX
West Virginia Regional Weather Roundup
National Weather Service Charleston WV
500 AM EDT THU APR 17 2014

Note: "fair" indicates few or no clouds below 12,000 feet with no
significant weather and/or obstructions to visibility.

WVZ003-171000-
Northern Panhandle of West Virginia

CITY           SKY/WX    TMP DP  RH WIND       PRES   REMARKS
WHEELING       CLEAR     35  16  45 E10       30.38R
$$

WVZ009-171000-
Northwest West Virginia

CITY           SKY/WX    TMP DP  RH WIND       PRES   REMARKS
PARKERSBURG    PTCLDY    34  23  64 E3        30.39R
$$

WVZ006-171000-
Western West Virginia

CITY           SKY/WX    TMP DP  RH WIND       PRES   REMARKS
HUNTINGTON     CLEAR     37  24  59 E6        30.32S
$$

WVZ015-171000-
West Central West Virginia

CITY           SKY/WX    TMP DP  RH WIND       PRES   REMARKS
CHARLESTON     CLEAR     43  21  41 SE5       30.35R
$$

WVZ031-171000-
North Central West Virginia

CITY           SKY/WX    TMP DP  RH WIND       PRES   REMARKS
CLARKSBURG     CLEAR     35  18  49 E6        30.39R
MORGANTOWN     CLEAR     39  14  36 VRB5      30.41R
$$

WVZ035-042-045-171000-
South Central West Virginia

CITY           SKY/WX    TMP DP  RH WIND       PRES   REMARKS
BECKLEY        CLEAR     36  15  42 SE14G21   30.38S
BLUEFIELD      CLEAR     37  16  42 SE12      30.39S
LEWISBURG      CLEAR     29  17  59 CALM      30.45R
$$

WVZ047-171000-
Northern Mountains of West Virginia

CITY           SKY/WX    TMP DP  RH WIND       PRES   REMARKS
ELKINS         CLEAR     32  17  54 SE5       30.40R
$$

WVZ052-171000-
Eastern Panhandle of West Virginia

CITY           SKY/WX    TMP DP  RH WIND       PRES   REMARKS
MARTINSBURG    CLEAR     31  20  63 CALM      30.55R
PETERSBURG     CLEAR     31  28  88 CALM      30.53R
$$



USA.gov is the U.S. government's official web portal to all federal, state and local government web resources and services.